STARLINK-32457, 61717

Orbit data source: Space-Track

STARLINK-32457, 61717 is a payload satellite owned by SpaceX/Seattle (US) in LEO that was launched on Wed, 30 Oct 2024 UTC via an FALCON 9 launch vehicle from the Air Force Eastern Test Range (AFETR). Payloads include a variety of satellites, spacecraft, and rockets equipped with specific instruments for various scientific and technological missions. These include communications satellites like Starlink; space stations such as the ISS; scientific satellites like the Hubble; Earth observation satellites from companies like Planet Labs, Umbra, and HawkEye 360; GPS; miniature CubeSats for education and research; and military/defense satellites.

Loading next visibility...
STARLINK-32457 details
Identifier
61717, 2024-196L
Orbit
LEO
Last TLE update7 hours ago
Origin
Flag of USSpaceX/Seattle (US)
ManufacturerSpaceX/Seattle
MissionOperational spacecraft
Bus & MotorSTARLINK V2M, Unknown motor
Mass730 kg wet, ~700 kg dry
Launch date (UTC)
2024-10-30 (2 months ago)
Launch vehicle
FALCON 9
Launch site
Air Force Eastern Test Range (AFETR)
Object type
Payload
Rocket body
Debris
Shape & HBRUnknown
Radar Cross SectionLarge (>1 m²)

Expand to show TLE details & history

TLE from 7 hours ago
0 STARLINK-32457
1 61717U 24196L   24361.13075731 -.00000694  00000-0 -73746-5 0  9990
2 61717  53.1633 340.3657 0001407  90.2622 269.8544 15.39604697 10016
Epoch: 2024-12-26T03:08Z
Definitive object data (Epoch: 2024-12-26T03:08:17.431Z)
Latitude-0.00004°
Longitude-161.82152°
Altitude448.184 km
Speed7.645 km/s
True Right ascension22h 41m 27s
True Declination0° 00' 00"
Sunlit
Object was in daylight at TLE epoch
Visualization TLE readout
Latitude-26.60867°
Longitude38.68512°
Altitude455.655 km
Speed7.639 km/s
Apparent Right ascension15h 36m 28s
Apparent Declination-63° 06' 33"
Sunlit
Object is in daylight
Visualization observer readout
Local Sidereal Time09:38:50
Azimuth146.644° SSE
Elevation-34.66°
Doppler factor1
Orbital elements
Apogee altitude448.495 km
Perigee altitude446.574 km
Semi-major axis6,825.671 km
Eccentricity0.0001407
Inclination53.1633°
RAAN340.3657°
Arg. of periapsis90.2622°
True anomaly269.83828°
Mean anomaly269.8544°
Eccentric anomaly269.84634°
Mean motion3.8488 °/min
BSTAR-0.0000073746
Orbital period93.54 mins
Loading maneuver chart data...
Loading historical data...
Loading historical data...
Loading historical data...
Loading historical data...
Loading historical data...
Loading historical data...
Loading historical data...

STARLINK-32457 Visibility forecast

Observer location: undefined°, undefined

Span
Click to sort rows by Start time (UTC) header in descending order
Start Az.
Max El. time (UTC)
Max El. Az.
Max El.
End time (UTC)
End Az.
6 mins2024-12-27 01:06:40.358Z209.909° SW2024-12-27 01:09:40.358Z146.35° SSE36.765°2024-12-27 01:12:40.358Z62.473° ENE
4 mins2024-12-27 02:45:40.358Z293.838° NW2024-12-27 02:47:40.358Z343.128° N21.225°2024-12-27 02:49:40.358Z22.546° NE
4 mins2024-12-27 07:40:40.358Z338.424° N2024-12-27 07:42:40.358Z52.58° ENE32.302°2024-12-27 07:44:40.358Z99.298° ESE
|